Home > Weather > Harrisburg > Past weeks

Flag for USA Past Weather in Harrisburg, Pennsylvania, USA — Yesterday and Last 2 Weeks

Now
88 °F

Sunny.


Feels Like: 89 °F
Forecast: 70 / 89 °F
Wind: 7 mph from East

Location: Capital City Airport

Current Time: Aug 27, 2016 at 6:35:22 PM

Latest Report: Aug 27, 2016 at 5:56 PM


Visibility: 10 mi

Pressure: 30.14 "Hg

Humidity: 45%

Dew Point: 64 °F

Location of HarrisburgLocation

Past Weather in Harrisburg — Graph

°F

Harrisburg Temperature Yesterday

Maximum temperature yesterday: 93 °F (at 3:56 PM)
Minimum temperature yesterday: 73 °F (at 11:56 PM)
Average temperature yesterday: 83 °F

High & Low Weather Summary for the Past Weeks

 TemperatureHumidityPressure
High98 °F (Aug 13, 3:56 PM)91% (Aug 13, 3:56 AM)30.35 "Hg (Aug 13, 3:56 AM)
Low57 °F (Aug 23, 4:56 AM)31% (Aug 19, 4:56 PM)29.76 "Hg (Aug 21, 4:56 PM)
Average79 °F68%30.04 "Hg
* Reported Aug 12 4:56 PM — Aug 27 4:56 PM, Harrisburg, Weather by CustomWeather, © 2016

Note: Actual official high and low records may vary slightly from our data, if they occured in-between our weather recording intervals... More about our weather records

Advertising

Harrisburg Weather History for the Previous 24 Hours

Scroll right to see more
 ConditionsComfort  
Time TempWeatherWind HumidityBarometerVisibility
4:56 PM
Sat, Aug 27
89 °FPassing clouds.7 mph43%30.14 "Hg10 mi
3:56 PM89 °FPassing clouds.7 mph43%30.15 "Hg10 mi
2:56 PM89 °FPassing clouds.7 mph45%30.16 "Hg10 mi
1:56 PM87 °FSunny.7 mph50%30.18 "Hg10 mi
12:56 PM86 °FSunny.No wind49%30.18 "Hg10 mi
11:56 AM85 °FSunny.6 mph51%30.19 "Hg10 mi
10:56 AM83 °FSunny.7 mph53%30.20 "Hg10 mi
9:56 AM82 °FSunny.8 mph55%30.21 "Hg10 mi
8:56 AM78 °FSunny.No wind66%30.20 "Hg10 mi
7:56 AM74 °FSunny.No wind82%30.19 "Hg10 mi
6:56 AM68 °FClear.No wind87%30.18 "Hg10 mi
5:56 AM68 °FClear.3 mph87%30.16 "Hg10 mi
4:56 AM69 °FClear.3 mph84%30.14 "Hg10 mi
3:56 AM70 °FClear.5 mph84%30.12 "Hg10 mi
2:56 AM71 °FClear.3 mph81%30.11 "Hg10 mi
1:56 AM71 °FClear.5 mph84%30.11 "Hg10 mi
12:56 AM72 °FClear.No wind81%30.11 "Hg10 mi
11:56 PM
Fri, Aug 26
73 °FClear.6 mph79%30.11 "Hg10 mi
10:56 PM74 °FClear.6 mph76%30.10 "Hg10 mi
9:56 PM77 °FClear.3 mph69%30.09 "Hg10 mi
8:56 PM79 °FClear.3 mph67%30.07 "Hg10 mi
7:56 PM88 °FSunny.No wind42%30.05 "Hg10 mi
6:56 PM91 °FSunny.6 mph37%30.03 "Hg10 mi
Weather by CustomWeather, © 2016

See weather overviewHow to use our weather pages